User: anonymous   Login
Location: Newark
(45.7425°N, 0.7617°W)
Time: 22:53:52
(UTC+00:00)
Language:

PCSat - Orbit

View from above orbital plane
View from above orbital plane
View from above satellite
View from above satellite

Ground track
Ground track

The orbit data is extracted from the following two-line orbital elements,

1 26931U 01043C   20093.03427130 -.00000012  00000-0  27147-4 0  9992
2 26931  67.0527 339.6042 0005992 265.5823  94.4594 14.30571848966213
Epoch (UTC): 02 April 2020 00:49:21
Eccentricity: 0.0005992
inclination: 67.0527°
perigee height: 785 km
apogee height: 794 km
right ascension of ascending node: 339.6042°
argument of perigee: 265.5823°
revolutions per day: 14.30571848
mean anomaly at epoch: 94.4594°
orbit number at epoch: 96621

The dashed part of the orbit path shows where the satellite is in the earth's shadow,  

DLR